When you browse on this site, cookies collect data to enhance your experience and personalize the content and advertising you see.
Visit our Privacy Policy to learn more. By continuing to use the site, you agree to this use of cookies and data.
  • In Schweiz
  • Länderverzeichnis
  • Für 7 Tage
  • Wassertemperatur
  • Satellitenkarten
  • Wetterkarte
  • Widgets
  • user-avatar
    Anmelden

    Stündliche Wetter Tokmak

    Heute, 23 Januar, Mittwoch

    Zeit Temperatur Niederschläge Wind Luftdruck Luftfeuchtigkeit
    00:00 -20°C° 0 mm 2 m/S 472 mmHg 60%
    01:00 -20°C° 0 mm 2 m/S 472 mmHg 61%
    02:00 -21°C° 0 mm 2 m/S 472 mmHg 62%
    03:00 -21°C° 0 mm 2 m/S 472 mmHg 62%
    04:00 -21°C° 0 mm 2 m/S 471 mmHg 62%
    05:00 -23°C° 0 mm 2 m/S 471 mmHg 62%
    06:00 -23°C° 0 mm 2 m/S 471 mmHg 61%
    07:00 -23°C° 0 mm 2 m/S 471 mmHg 61%
    08:00 -23°C° 0 mm 2 m/S 471 mmHg 60%
    09:00 -21°C° 0 mm 2 m/S 472 mmHg 62%
    10:00 -17°C° 0 mm 1 m/S 473 mmHg 63%
    11:00 -16°C° 0 mm 1 m/S 475 mmHg 67%
    12:00 -16°C° 0 mm 1 m/S 475 mmHg 69%
    13:00 -16°C° 0 mm 1 m/S 475 mmHg 72%
    14:00 -15°C° 0 mm 1 m/S 475 mmHg 74%
    15:00 -17°C° 0 mm 1 m/S 474 mmHg 75%
    16:00 -18°C° 0 mm 1 m/S 473 mmHg 77%
    17:00 -20°C° 0 mm 1 m/S 472 mmHg 78%
    18:00 -23°C° 0 mm 2 m/S 472 mmHg 74%
    19:00 -23°C° 0 mm 2 m/S 472 mmHg 69%
    20:00 -24°C° 0 mm 2 m/S 472 mmHg 65%
    21:00 -24°C° 0 mm 2 m/S 472 mmHg 63%
    22:00 -25°C° 0 mm 3 m/S 472 mmHg 60%
    23:00 -25°C° 0 mm 3 m/S 473 mmHg 58%

    Morgen, 24 Januar, Donnerstag

    Zeit Temperatur Niederschläge Wind Luftdruck Luftfeuchtigkeit
    00:00 -25°C° 0 mm 3 m/S 473 mmHg 57%
    01:00 -25°C° 0 mm 3 m/S 473 mmHg 56%
    02:00 -25°C° 0 mm 3 m/S 473 mmHg 56%
    03:00 -25°C° 0 mm 3 m/S 473 mmHg 56%
    04:00 -24°C° 0 mm 2 m/S 473 mmHg 57%
    05:00 -24°C° 0 mm 2 m/S 474 mmHg 57%
    06:00 -24°C° 0 mm 2 m/S 474 mmHg 58%
    07:00 -24°C° 0 mm 2 m/S 474 mmHg 59%
    08:00 -24°C° 0 mm 2 m/S 474 mmHg 61%
    09:00 -23°C° 0 mm 2 m/S 475 mmHg 62%
    10:00 -20°C° 0 mm 2 m/S 476 mmHg 64%
    11:00 -17°C° 0 mm 1 m/S 478 mmHg 66%
    12:00 -17°C° 0 mm 1 m/S 477 mmHg 68%
    13:00 -17°C° 0 mm 1 m/S 477 mmHg 69%
    14:00 -17°C° 0 mm 1 m/S 477 mmHg 71%
    15:00 -18°C° 0 mm 1 m/S 477 mmHg 73%
    16:00 -19°C° 0 mm 1 m/S 476 mmHg 76%
    17:00 -21°C° 0 mm 1 m/S 475 mmHg 78%
    18:00 -24°C° 0.1 mm 2 m/S 476 mmHg 76%
    19:00 -24°C° 0.1 mm 2 m/S 476 mmHg 75%
    20:00 -24°C° 0.1 mm 2 m/S 476 mmHg 73%
    21:00 -24°C° 0.1 mm 2 m/S 476 mmHg 72%
    22:00 -24°C° 0.1 mm 2 m/S 477 mmHg 71%
    23:00 -24°C° 0.1 mm 2 m/S 477 mmHg 70%

    übermorgen, 25 Januar, Freitag

    Zeit Temperatur Niederschläge Wind Luftdruck Luftfeuchtigkeit
    00:00 -24°C° 0 mm 2 m/S 477 mmHg 69%
    01:00 -24°C° 0 mm 2 m/S 477 mmHg 68%
    02:00 -24°C° 0 mm 2 m/S 477 mmHg 67%
    03:00 -26°C° 0 mm 3 m/S 477 mmHg 66%
    04:00 -26°C° 0 mm 3 m/S 476 mmHg 64%
    05:00 -27°C° 0 mm 3 m/S 476 mmHg 63%
    06:00 -27°C° 0 mm 3 m/S 476 mmHg 62%
    07:00 -27°C° 0 mm 3 m/S 476 mmHg 61%
    08:00 -26°C° 0 mm 3 m/S 477 mmHg 60%
    09:00 -23°C° 0 mm 2 m/S 477 mmHg 59%
    10:00 -21°C° 0 mm 2 m/S 478 mmHg 58%
    11:00 -19°C° 0 mm 2 m/S 479 mmHg 58%
    12:00 -18°C° 0 mm 2 m/S 479 mmHg 59%
    13:00 -16°C° 0 mm 1 m/S 479 mmHg 59%
    14:00 -16°C° 0 mm 1 m/S 479 mmHg 60%
    15:00 -19°C° 0 mm 2 m/S 478 mmHg 61%
    16:00 -21°C° 0 mm 2 m/S 476 mmHg 63%
    17:00 -23°C° 0 mm 2 m/S 475 mmHg 64%
    18:00 -25°C° 0 mm 3 m/S 475 mmHg 60%
    19:00 -25°C° 0 mm 3 m/S 475 mmHg 56%
    20:00 -25°C° 0 mm 3 m/S 476 mmHg 51%
    21:00 -25°C° 0 mm 3 m/S 476 mmHg 48%
    22:00 -25°C° 0 mm 3 m/S 476 mmHg 45%
    23:00 -26°C° 0 mm 4 m/S 475 mmHg 42%

    26 Januar, Samstag

    Zeit Temperatur Niederschläge Wind Luftdruck Luftfeuchtigkeit
    00:00 -26°C° 0 mm 4 m/S 475 mmHg 39%
    01:00 -26°C° 0 mm 4 m/S 475 mmHg 37%
    02:00 -26°C° 0 mm 4 m/S 475 mmHg 35%
    03:00 -26°C° 0 mm 4 m/S 475 mmHg 34%
    04:00 -26°C° 0 mm 4 m/S 475 mmHg 33%
    05:00 -26°C° 0 mm 4 m/S 475 mmHg 32%
    06:00 -26°C° 0 mm 4 m/S 475 mmHg 33%
    07:00 -26°C° 0 mm 4 m/S 475 mmHg 34%
    08:00 -26°C° 0 mm 4 m/S 475 mmHg 35%
    09:00 -23°C° 0 mm 3 m/S 476 mmHg 39%
    10:00 -21°C° 0 mm 3 m/S 477 mmHg 43%
    11:00 -17°C° 0 mm 2 m/S 478 mmHg 47%
    12:00 -17°C° 0 mm 2 m/S 478 mmHg 48%
    13:00 -16°C° 0 mm 2 m/S 478 mmHg 48%
    14:00 -16°C° 0 mm 2 m/S 478 mmHg 49%
    15:00 -18°C° 0 mm 2 m/S 477 mmHg 50%
    16:00 -22°C° 0 mm 3 m/S 475 mmHg 51%
    17:00 -23°C° 0 mm 3 m/S 474 mmHg 51%
    18:00 -24°C° 0 mm 3 m/S 474 mmHg 47%
    19:00 -25°C° 0 mm 4 m/S 475 mmHg 44%
    20:00 -26°C° 0 mm 4 m/S 475 mmHg 40%
    21:00 -26°C° 0 mm 4 m/S 475 mmHg 38%
    22:00 -26°C° 0 mm 4 m/S 475 mmHg 35%
    23:00 -26°C° 0 mm 4 m/S 475 mmHg 33%

    27 Januar, Sonntag

    Zeit Temperatur Niederschläge Wind Luftdruck Luftfeuchtigkeit
    00:00 -26°C° 0 mm 4 m/S 475 mmHg 33%
    01:00 -26°C° 0 mm 4 m/S 475 mmHg 32%
    02:00 -26°C° 0 mm 4 m/S 474 mmHg 32%
    03:00 -26°C° 0 mm 4 m/S 474 mmHg 32%
    04:00 -26°C° 0 mm 4 m/S 474 mmHg 32%
    05:00 -26°C° 0 mm 4 m/S 474 mmHg 32%
    06:00 -26°C° 0 mm 4 m/S 475 mmHg 32%
    07:00 -26°C° 0 mm 4 m/S 475 mmHg 33%
    08:00 -26°C° 0 mm 4 m/S 475 mmHg 33%
    09:00 -23°C° 0 mm 3 m/S 476 mmHg 37%
    10:00 -21°C° 0 mm 3 m/S 477 mmHg 40%
    11:00 -17°C° 0 mm 2 m/S 478 mmHg 43%
    12:00 -17°C° 0 mm 2 m/S 478 mmHg 45%
    13:00 -17°C° 0 mm 2 m/S 478 mmHg 46%
    14:00 -17°C° 0 mm 2 m/S 478 mmHg 47%
    15:00 -18°C° 0 mm 2 m/S 476 mmHg 48%
    16:00 -22°C° 0 mm 3 m/S 475 mmHg 49%
    17:00 -24°C° 0 mm 3 m/S 474 mmHg 50%
    18:00 -24°C° 0 mm 3 m/S 475 mmHg 48%
    19:00 -24°C° 0 mm 3 m/S 475 mmHg 45%
    20:00 -25°C° 0 mm 4 m/S 475 mmHg 42%
    21:00 -25°C° 0 mm 4 m/S 475 mmHg 43%
    22:00 -24°C° 0 mm 4 m/S 475 mmHg 44%
    23:00 -24°C° 0 mm 4 m/S 475 mmHg 45%

    28 Januar, Montag

    Zeit Temperatur Niederschläge Wind Luftdruck Luftfeuchtigkeit
    00:00 -24°C° 0 mm 4 m/S 475 mmHg 48%
    01:00 -24°C° 0 mm 4 m/S 475 mmHg 51%
    02:00 -24°C° 0 mm 4 m/S 475 mmHg 53%
    03:00 -24°C° 0 mm 4 m/S 475 mmHg 55%
    04:00 -24°C° 0 mm 4 m/S 475 mmHg 56%
    05:00 -24°C° 0 mm 4 m/S 475 mmHg 58%
    06:00 -23°C° 0 mm 4 m/S 475 mmHg 58%
    07:00 -23°C° 0 mm 4 m/S 475 mmHg 59%
    08:00 -23°C° 0 mm 4 m/S 476 mmHg 60%
    09:00 -22°C° 0.1 mm 4 m/S 476 mmHg 61%
    10:00 -20°C° 0.1 mm 4 m/S 477 mmHg 62%
    11:00 -18°C° 0.1 mm 4 m/S 478 mmHg 63%
    12:00 -18°C° 0.1 mm 4 m/S 477 mmHg 64%
    13:00 -17°C° 0.1 mm 4 m/S 477 mmHg 65%
    14:00 -17°C° 0.1 mm 4 m/S 477 mmHg 66%
    15:00 -18°C° 0.1 mm 4 m/S 476 mmHg 68%
    16:00 -19°C° 0.1 mm 4 m/S 475 mmHg 69%
    17:00 -19°C° 0.1 mm 4 m/S 475 mmHg 71%
    18:00 -20°C° 0.2 mm 5 m/S 475 mmHg 71%
    19:00 -20°C° 0.2 mm 5 m/S 475 mmHg 72%
    20:00 -20°C° 0.2 mm 5 m/S 474 mmHg 72%
    21:00 -20°C° 0.3 mm 5 m/S 474 mmHg 73%
    22:00 -20°C° 0.3 mm 5 m/S 474 mmHg 74%
    23:00 -20°C° 0.3 mm 5 m/S 474 mmHg 75%
    Mehr zeigen